Regional Weather Roundup
Issued by NWS State College, PA

Home | Current Version | Previous Version | Text Only | Print | Product List | Glossary On
Versions: 1 2 3 4 5 6 7 8 9 10 11 12 13 14 15 16 17 18 19 20 21 22 23 24 25 26 27 28 29 30 31 32 33 34 35 36 37 38 39 40 41 42 43 44 45 46 47 48 49 50
000
ASUS41 KCTP 251310
RWRCTP

REGIONAL WEATHER ROUNDUP
NATIONAL WEATHER SERVICE STATE COLLEGE PA
800 AM EST SUN JAN 25 2015

Note: "fair" indicates few or no clouds below 12,000 feet with no
significant weather and/or obstructions to visibility.

* = STATION THAT DOES NOT REPORT PRECIPITATION /E.G. RAIN...SNOW...ETC/
    THUNDER OR FOG.

PAZ002>004-007>009-013>016-020>023-029>032-251400-
WESTERN PENNSYLVANIA

CITY           SKY/WX    TMP DP  RH WIND       PRES   REMARKS
ERIE           LGT SNOW  26  22  84 N13       29.82R FOG     WCI  15
MEADVILLE      LGT SNOW  26  23  88 N9        29.75R FOG
FRANKLIN*      CLOUDY    30  27  86 CALM      29.75R
NEW CASTLE     PTSUNNY   32  32 100 CALM      29.77R FOG
BEAVER COUNTY  NOT AVBL
BUTLER*        CLOUDY    34  30  86 SW6       29.76R
PITTSBURGH INT CLOUDY    33  31  92 SW5       29.75R FOG
PITTSBURGH     CLOUDY    33  28  81 SW9       29.75R HAZE
INDIANA*       CLOUDY    34  32  93 W12       29.77R FOG
LATROBE        CLOUDY    32  32 100 SW8       29.78R FOG
WASHINGTON CO* CLOUDY    34  28  80 SW5       29.77S
$$

PAZ004>006-010>012-017>019-024>028-033>037-041-042-045-046-049>053-251400-
CENTRAL PENNSYLVANIA

CITY           SKY/WX    TMP DP  RH WIND       PRES   REMARKS
BRADFORD       CLOUDY    24  19  81 NW9       29.69R WCI  14
DUBOIS         CLOUDY    31  29  92 W7        29.69R FOG
CLEARFIELD     CLOUDY    32  30  92 W6        29.71R
JOHNSTOWN      FOG       30  28  92 W13       29.69R VSB 1/4
ALTOONA        CLOUDY    34  31  88 W5        29.73R FOG
STATE COLLEGE  CLOUDY    34  30  86 W10       29.73R
WILLIAMSPORT   CLOUDY    35  29  78 W7        29.72R
SELINSGROVE    CLOUDY    39  29  67 CALM      29.74R
FT INDIANTOWN  CLOUDY    37  29  71 SW10G18   29.74R
CAPITAL CITY   CLOUDY    39  28  64 SW3       29.76R
HARRISBURG     CLOUDY    38  28  67 VRB5      29.76R
YORK           CLOUDY    37  28  70 SW9       29.77R
$$

PAZ038>040-043-044-047-048-054-055-060>062-067>071-251400-
EASTERN PENNSYLVANIA

CITY           SKY/WX    TMP DP  RH WIND       PRES   REMARKS
SCRANTON       CLOUDY    33  26  75 W7        29.68R
MOUNT POCONO   FLURRIES  31  23  72 NW16      29.61R
ALLENTOWN      CLOUDY    36  27  69 SW13      29.71R
QUAKERTOWN*    NOT AVBL
READING        CLOUDY    37  28  70 W9        29.74R
LANCASTER      CLOUDY    35  28  75 W6        29.76R
COATESVILLE    CLOUDY    37  32  81 W8        29.76R
POTTSTOWN      CLOUDY    37  27  67 W8        29.75R
BLUE BELL      CLOUDY    37  30  75 SW8       29.74R
DOYLESTOWN     MOCLDY    33  27  78 SW7       29.72R
WILLOW GROVE   NOT AVBL
NORTH PHILA    CLOUDY    37  26  64 SW12      29.76R
PHILADELPHIA   MOCLDY    37  28  70 SW18      29.78R
$$



USA.gov is the U.S. government's official web portal to all federal, state and local government web resources and services.